Weather History for Gulf Shores, AL

Change the Weather History Date:

Sunday, December 9, 2012

  Actual Average (KPNS) Record (KPNS)
Temperature  
Mean Temperature 62 °F 55 °F  
Max Temperature 73 °F 64 °F 79 °F (2009)
Min Temperature 51 °F 45 °F 22 °F (1917)
Degree Days  
Heating Degree Days 3 11  
Month to date heating degree days 90  
Since 1 July heating degree days 302  
Cooling Degree Days 0 0  
Month to date cooling degree days 7  
Year to date cooling degree days 2603  
Growing Degree Days 12 (Base 50)    
Moisture  
Dew Point 59 °F    
Average Humidity 83    
Maximum Humidity 100    
Minimum Humidity 65    
Precipitation  
Precipitation 0.00 in 0.16 in 2.79 in (1992)
Month to date precipitation 1.43  
Year to date precipitation 62.15  
Snow  
Snow 0.00 in 0.00 in 0.00 in (2002)
Month to date snowfall 0.0  
Since 1 July snowfall 0.0  
Snow Depth -    
Sea Level Pressure  
Sea Level Pressure 30.01 in    
Wind  
Wind Speed 3 mph (SSE)    
Max Wind Speed 12 mph    
Max Gust Speed -    
Visibility 8 miles    
Events Fog    
T = Trace of Precipitation, MM = Missing Value Source: NWS Daily Summary

Daily Weather History Graph

Daily Weather History Graph

Search for Another Location

Airport:

Trip Planner

Search our weather history database for the weather conditions in past years. The results will help you decide how hot, cold, wet, or windy it might be!

Date:

Astronomy

Dec. 09, 2012 Rise Set
Actual Time 6:36 AM CST 4:50 PM CST
Civil Twilight 6:09 AM CST 5:16 PM CST
Nautical Twilight 5:39 AM CST 5:46 PM CST
Astronomical Twilight 5:10 AM CST 6:16 PM CST
Moon 2:21 AM CST (12/9) 1:46 PM CST (12/9)
Length of Visible Light 11h 07m
Length of Day
10h 14m
Waning Crescent, 18% of the Moon is Illuminated
Dec 9
Waning Crescent
Dec 13
New
Dec 19
First Quarter
Dec 28
Full
Jan 4
Last Quarter

Hourly Weather History & Observations

Time (CST) Temp. Dew Point Humidity Pressure Visibility Wind Dir Wind Speed Gust Speed Precip Events Conditions
12:15 AM 53.6 °F 51.8 °F 94% 30.01 in 10.0 mi Calm Calm - N/A   Scattered Clouds
12:35 AM 53.6 °F 51.8 °F 94% 30.01 in 1.0 mi Calm Calm - N/A   Overcast
12:55 AM 53.6 °F 51.8 °F 94% 30.02 in 0.8 mi Calm Calm - N/A   Overcast
1:15 AM 53.6 °F 51.8 °F 94% 30.01 in 2.5 mi Calm Calm - N/A   Mostly Cloudy
1:35 AM 53.6 °F 51.8 °F 94% 30.01 in 2.0 mi Calm Calm - N/A   Scattered Clouds
1:55 AM 51.8 °F 50.0 °F 94% 30.01 in 1.0 mi Calm Calm - N/A   Mist
2:15 AM 51.8 °F 50.0 °F 94% 30.00 in 3.0 mi Calm Calm - N/A   Scattered Clouds
2:35 AM 53.6 °F 51.8 °F 94% 30.00 in 5.0 mi Calm Calm - N/A   Mostly Cloudy
2:55 AM 51.8 °F 50.0 °F 94% 30.01 in 4.0 mi Calm Calm - N/A   Clear
3:15 AM 51.8 °F 50.0 °F 94% 30.01 in 3.0 mi Calm Calm - N/A   Clear
3:35 AM 51.8 °F 51.8 °F 100% 30.01 in 0.5 mi Calm Calm - N/A Fog Fog
3:55 AM 53.6 °F 51.8 °F 94% 30.01 in 0.8 mi Calm Calm - N/A   Mist
4:15 AM 51.8 °F 50.0 °F 94% 30.01 in 1.2 mi Calm Calm - N/A   Mist
4:35 AM 51.8 °F 50.0 °F 94% 30.02 in 2.5 mi Calm Calm - N/A   Mist
4:55 AM 53.6 °F 51.8 °F 94% 30.02 in 5.0 mi Calm Calm - N/A   Clear
5:15 AM 51.8 °F 50.0 °F 94% 30.02 in 2.0 mi Calm Calm - N/A   Clear
5:35 AM 51.8 °F 50.0 °F 94% 30.02 in 1.8 mi Calm Calm - N/A   Mist
5:55 AM 51.8 °F 50.0 °F 94% 30.03 in 1.5 mi Calm Calm - N/A   Mist
6:15 AM 51.8 °F 50.0 °F 94% 30.04 in 5.0 mi Calm Calm - N/A   Clear
6:35 AM 51.8 °F 50.0 °F 94% 30.05 in 10.0 mi Calm Calm - N/A   Clear
6:55 AM 53.6 °F 51.8 °F 94% 30.05 in 7.0 mi Calm Calm - N/A   Clear
7:15 AM 53.6 °F 51.8 °F 94% 30.05 in 10.0 mi Calm Calm - N/A   Clear
7:35 AM 55.4 °F 53.6 °F 94% 30.06 in 10.0 mi Calm Calm - N/A   Scattered Clouds
7:55 AM 59.0 °F 55.4 °F 88% 30.06 in 10.0 mi Calm Calm - N/A   Scattered Clouds
8:15 AM 62.6 °F 60.8 °F 94% 30.07 in 10.0 mi Calm Calm - N/A   Clear
8:35 AM 66.2 °F 64.4 °F 94% 30.07 in 10.0 mi Calm Calm - N/A   Scattered Clouds
8:55 AM 68.0 °F 64.4 °F 88% 30.07 in 10.0 mi SE 4.6 mph - N/A   Scattered Clouds
9:15 AM 71.6 °F 62.6 °F 73% 30.07 in 10.0 mi SSE 5.8 mph - N/A   Clear
9:35 AM 73.4 °F 62.6 °F 69% 30.08 in 10.0 mi SE 6.9 mph - N/A   Clear
9:55 AM 73.4 °F 60.8 °F 65% 30.08 in 10.0 mi SSE 8.1 mph - N/A   Clear
10:35 AM 73.4 °F 60.8 °F 65% 30.07 in 10.0 mi SSE 5.8 mph - N/A   Mostly Cloudy
10:55 AM 73.4 °F 62.6 °F 69% 30.07 in 10.0 mi SSE 6.9 mph - N/A   Mostly Cloudy
11:15 AM 73.4 °F 62.6 °F 69% 30.06 in 10.0 mi SSE 6.9 mph - N/A   Mostly Cloudy
11:35 AM 73.4 °F 62.6 °F 69% 30.05 in 10.0 mi SSE 8.1 mph - N/A   Mostly Cloudy
11:55 AM 73.4 °F 62.6 °F 69% 30.04 in 10.0 mi SSE 8.1 mph - N/A   Mostly Cloudy
12:15 PM 71.6 °F 62.6 °F 73% 30.03 in 10.0 mi SSE 6.9 mph - N/A   Mostly Cloudy
12:35 PM 73.4 °F 62.6 °F 69% 30.02 in 10.0 mi SSE 9.2 mph - N/A   Mostly Cloudy
12:55 PM 73.4 °F 62.6 °F 69% 30.01 in 10.0 mi SSE 9.2 mph - N/A   Mostly Cloudy
1:15 PM 73.4 °F 62.6 °F 69% 30.01 in 10.0 mi SSE 11.5 mph - N/A   Scattered Clouds
1:35 PM 73.4 °F 62.6 °F 69% 30.00 in 10.0 mi SSE 10.4 mph - N/A   Scattered Clouds
1:55 PM 73.4 °F 62.6 °F 69% 30.00 in 10.0 mi SSE 8.1 mph - N/A   Scattered Clouds
2:15 PM 73.4 °F 62.6 °F 69% 30.00 in 10.0 mi SSE 10.4 mph - N/A   Scattered Clouds
2:35 PM 73.4 °F 64.4 °F 73% 30.00 in 10.0 mi SSE 9.2 mph - N/A   Mostly Cloudy
2:55 PM 73.4 °F 64.4 °F 73% 29.99 in 10.0 mi SE 8.1 mph - N/A   Overcast
3:15 PM 71.6 °F 64.4 °F 78% 30.00 in 10.0 mi SE 9.2 mph - N/A   Overcast
3:35 PM 71.6 °F 64.4 °F 78% 30.00 in 10.0 mi SE 6.9 mph - N/A   Overcast
3:55 PM 71.6 °F 64.4 °F 78% 29.99 in 10.0 mi SE 6.9 mph - N/A   Overcast
4:15 PM 71.6 °F 64.4 °F 78% 29.99 in 10.0 mi SE 6.9 mph - N/A   Overcast
4:35 PM 71.6 °F 64.4 °F 78% 29.99 in 10.0 mi SE 6.9 mph - N/A   Overcast
4:55 PM 71.6 °F 64.4 °F 78% 29.99 in 10.0 mi SE 5.8 mph - N/A   Overcast
5:15 PM 71.6 °F 66.2 °F 83% 29.99 in 10.0 mi SSE 5.8 mph - N/A   Overcast
5:35 PM 69.8 °F 64.4 °F 83% 29.99 in 10.0 mi SSE 6.9 mph - N/A   Mostly Cloudy
5:55 PM 69.8 °F 64.4 °F 83% 29.99 in 10.0 mi SE 5.8 mph - N/A   Mostly Cloudy
6:15 PM 69.8 °F 64.4 °F 83% 29.99 in 10.0 mi SSE 6.9 mph - N/A   Mostly Cloudy
6:35 PM 69.8 °F 64.4 °F 83% 29.99 in 10.0 mi SSE 5.8 mph - N/A   Scattered Clouds
6:55 PM 69.8 °F 64.4 °F 83% 29.99 in 10.0 mi SSE 5.8 mph - N/A   Clear
7:15 PM 69.8 °F 64.4 °F 83% 29.99 in 10.0 mi SSE 4.6 mph - N/A   Clear
7:35 PM 69.8 °F 64.4 °F 83% 29.99 in 10.0 mi SSE 6.9 mph - N/A   Clear
7:55 PM 69.8 °F 64.4 °F 83% 29.99 in 10.0 mi SSE 8.1 mph - N/A   Clear
8:15 PM 69.8 °F 64.4 °F 83% 29.99 in 10.0 mi SSE 6.9 mph - N/A   Clear
8:35 PM 69.8 °F 64.4 °F 83% 29.99 in 10.0 mi SSE 8.1 mph - N/A   Scattered Clouds
8:55 PM 69.8 °F 64.4 °F 83% 29.99 in 10.0 mi SSE 9.2 mph - N/A   Scattered Clouds
9:15 PM 69.8 °F 64.4 °F 83% 29.99 in 10.0 mi SSE 8.1 mph - N/A   Scattered Clouds
9:35 PM 69.8 °F 64.4 °F 83% 29.98 in 10.0 mi SSE 8.1 mph - N/A   Clear
9:55 PM 69.8 °F 64.4 °F 83% 29.98 in 10.0 mi SSE 8.1 mph - N/A   Clear
10:15 PM 69.8 °F 64.4 °F 83% 29.97 in 10.0 mi SSE 9.2 mph - N/A   Clear
10:35 PM 69.8 °F 64.4 °F 83% 29.97 in 10.0 mi SSE 8.1 mph - N/A   Clear
10:55 PM 69.8 °F 64.4 °F 83% 29.96 in 10.0 mi SSE 8.1 mph - N/A   Clear
11:15 PM 69.8 °F 64.4 °F 83% 29.96 in 10.0 mi SSE 8.1 mph - N/A   Clear
11:35 PM 69.8 °F 64.4 °F 83% 29.96 in 10.0 mi South 8.1 mph - N/A   Scattered Clouds
11:55 PM 69.8 °F 64.4 °F 83% 29.95 in 10.0 mi South 6.9 mph - N/A   Clear